Voltar ao catálogo

STARLINK-2491

AtivoComunicaçõesVLEO
NORAD 48148·PAYLOAD·🇺🇸 United States

Lançado Apr 7, 2021 de Cape Canaveral Space Force Station

Loading…

Próximas Passagens (próximas 24 horas)

TLE

AtualizadoSource: CelesTrak SupGP

Época: Sep 14, 2026, 20:22 UTC

1 48148C 21027BJ  26257.84909722  .00000484  00000+0  15558-4 0  2570
2 48148  53.1582   5.4085 0001153  83.0639 176.5517 15.31706110    10

Acompanhe STARLINK-2491 em tempo real com AllMySat

Download on the App Store